Weather History for Burnet, TX

Change the Weather History Date:

Wednesday, January 23, 2013

  Actual Average Record
Temperature  
Mean Temperature 58 °F -  
Max Temperature 72 °F 58 °F 82 °F (2009)
Min Temperature 44 °F 37 °F 23 °F (2014)
Degree Days  
Heating Degree Days 7    
Growing Degree Days 8 (Base 50)    
Moisture  
Dew Point 49 °F    
Average Humidity 80    
Maximum Humidity 96    
Minimum Humidity 51    
Precipitation  
Precipitation 0.00 in - - ()
Sea Level Pressure  
Sea Level Pressure 30.27 in    
Wind  
Wind Speed 3 mph (SSW)    
Max Wind Speed 14 mph    
Max Gust Speed 20 mph    
Visibility 7 miles    
Events Fog    
Averages and records for this station are not official NWS values.
T = Trace of Precipitation, MM = Missing Value Source: NWS Daily Summary

Daily Weather History Graph

Daily Weather History Graph

Search for Another Location

Airport:

Trip Planner

Search our weather history database for the weather conditions in past years. The results will help you decide how hot, cold, wet, or windy it might be!

Date:

Astronomy

Jan. 23, 2013 Rise Set
Actual Time 7:28 AM CST 6:01 PM CST
Civil Twilight 7:03 AM CST 6:26 PM CST
Nautical Twilight 6:33 AM CST 6:56 PM CST
Astronomical Twilight 6:05 AM CST 7:24 PM CST
Moon 3:15 PM CST (1/23) 4:38 AM CST (1/23)
Length of Visible Light 11h 23m
Length of Day
10h 32m
Waxing Gibbous, 89% of the Moon is Illuminated
Jan 23
Waxing Gibbous
Jan 26
Full
Feb 3
Last Quarter
Feb 10
New
Feb 17
First Quarter

Hourly Weather History & Observations

Time (CST) Temp. Dew Point Humidity Pressure Visibility Wind Dir Wind Speed Gust Speed Precip Events Conditions
1:53 AM 48.9 °F 45.0 °F 86% 30.26 in 10.0 mi SSW 3.5 mph - N/A   Clear
2:53 AM 48.0 °F 44.1 °F 86% 30.26 in 9.0 mi Calm Calm - N/A   Clear
3:53 AM 46.9 °F 43.0 °F 86% 30.25 in 9.0 mi Calm Calm - N/A   Clear
4:53 AM 46.9 °F 44.1 °F 90% 30.25 in 7.0 mi Calm Calm - N/A   Clear
5:53 AM 45.0 °F 42.1 °F 90% 30.26 in 7.0 mi Calm Calm - N/A   Clear
6:53 AM 45.0 °F 42.1 °F 90% 30.27 in 4.0 mi Calm Calm - N/A   Clear
7:36 AM 45.0 °F 43.0 °F 93% 30.30 in 1.8 mi Calm Calm - N/A   Scattered Clouds
7:38 AM 45.0 °F 43.0 °F 93% 30.30 in 0.5 mi Calm Calm - N/A Fog Fog
7:46 AM 45.0 °F 43.0 °F 93% 30.30 in 0.2 mi Calm Calm - N/A Fog Fog
7:53 AM 44.1 °F 43.0 °F 96% 30.30 in 0.2 mi Calm Calm - N/A Fog Fog
8:24 AM 48.0 °F 46.0 °F 93% 30.31 in 1.0 mi Calm Calm - N/A   Mist
8:53 AM 50.0 °F 48.9 °F 96% 30.30 in 1.0 mi Calm Calm - N/A   Mostly Cloudy
8:58 AM 50.0 °F 48.9 °F 96% 30.32 in 1.5 mi Variable 3.5 mph - N/A   Mostly Cloudy
9:09 AM 51.1 °F 48.9 °F 92% 30.32 in 2.5 mi SW 3.5 mph - N/A   Mostly Cloudy
9:29 AM 52.0 °F 50.0 °F 93% 30.33 in 3.0 mi SSW 3.5 mph - N/A   Overcast
9:53 AM 55.0 °F 52.0 °F 89% 30.33 in 6.0 mi South 4.6 mph - N/A   Overcast
10:20 AM 57.9 °F 52.0 °F 81% 30.34 in 9.0 mi South 6.9 mph - N/A   Scattered Clouds
10:53 AM 61.0 °F 52.0 °F 72% 30.32 in 10.0 mi South 9.2 mph - N/A   Partly Cloudy
11:53 AM 64.9 °F 53.1 °F 65% 30.30 in 10.0 mi South 10.4 mph - N/A   Clear
12:53 PM 70.0 °F 53.1 °F 55% 30.25 in 10.0 mi South 13.8 mph 19.6 mph N/A   Clear
1:53 PM 71.1 °F 53.1 °F 53% 30.23 in 10.0 mi South 9.2 mph - N/A   Clear
3:53 PM 72.0 °F 54.0 °F 53% 30.20 in 10.0 mi South 10.4 mph - N/A   Clear
4:53 PM 72.0 °F 53.1 °F 51% 30.19 in 10.0 mi SSW 10.4 mph - N/A   Clear
5:53 PM 69.1 °F 54.0 °F 58% 30.20 in 10.0 mi South 5.8 mph - N/A   Clear
6:53 PM 66.0 °F 54.0 °F 65% 30.20 in 10.0 mi South 8.1 mph - N/A   Clear
7:53 PM 63.0 °F 53.1 °F 70% 30.22 in 10.0 mi SSW 4.6 mph - N/A   Clear
8:53 PM 59.0 °F 52.0 °F 78% 30.22 in 10.0 mi Calm Calm - N/A   Clear
9:53 PM 57.9 °F 52.0 °F 81% 30.22 in 10.0 mi Calm Calm - N/A   Clear
10:53 PM 55.9 °F 51.1 °F 84% 30.22 in 10.0 mi Calm Calm - N/A   Clear
11:53 PM 55.0 °F 51.1 °F 86% 30.21 in 9.0 mi Calm Calm - N/A   Clear